Year,Month,Day,Hour,Minute,Value (Times are PST for windgust in km/hr)
2022,04,16,00,00,6.40
2022,04,16,00,01,4.80
2022,04,16,00,02,1.60
2022,04,16,00,03,6.40
2022,04,16,00,04,6.40
2022,04,16,00,05,12.90
2022,04,16,00,06,12.90
2022,04,16,00,07,9.60
2022,04,16,00,08,9.60
2022,04,16,00,09,9.60
2022,04,16,00,10,8.10
2022,04,16,00,11,6.40
2022,04,16,00,12,4.80
2022,04,16,00,13,3.20
2022,04,16,00,14,3.20
2022,04,16,00,15,4.80
2022,04,16,00,16,3.20
2022,04,16,00,17,1.60
2022,04,16,00,19,1.60
2022,04,16,00,20,4.80
2022,04,16,00,21,4.80
2022,04,16,00,22,3.20
2022,04,16,00,23,3.20
2022,04,16,00,24,3.20
2022,04,16,00,25,3.20
2022,04,16,00,26,3.20
2022,04,16,00,27,4.80
2022,04,16,00,28,1.60
2022,04,16,00,29,3.20
2022,04,16,00,30,3.20
2022,04,16,00,31,4.80
2022,04,16,00,32,4.80
2022,04,16,00,33,6.40
2022,04,16,00,34,4.80
2022,04,16,00,35,6.40
2022,04,16,00,36,4.80
2022,04,16,00,37,4.80
2022,04,16,00,38,4.80
2022,04,16,00,39,3.20
2022,04,16,00,40,1.60
2022,04,16,00,41,1.60
2022,04,16,00,42,3.20
2022,04,16,00,43,6.40
2022,04,16,00,44,8.10
2022,04,16,00,45,9.60
2022,04,16,00,46,8.10
2022,04,16,00,47,8.10
2022,04,16,00,48,8.10
2022,04,16,00,49,6.40
2022,04,16,00,50,6.40
2022,04,16,00,51,6.40
2022,04,16,00,52,4.80
2022,04,16,00,53,3.20
2022,04,16,00,54,4.80
2022,04,16,00,55,4.80
2022,04,16,00,56,4.80
2022,04,16,00,57,3.20
2022,04,16,00,58,1.60
2022,04,16,00,59,1.60
2022,04,16,01,00,3.20
2022,04,16,01,01,1.60
2022,04,16,01,02,1.60
2022,04,16,01,03,3.20
2022,04,16,01,04,3.20
2022,04,16,01,05,3.20
2022,04,16,01,06,3.20
2022,04,16,01,07,4.80
2022,04,16,01,08,3.20
2022,04,16,01,09,3.20
2022,04,16,01,10,4.80
2022,04,16,01,11,4.80
2022,04,16,01,12,3.20
2022,04,16,01,13,6.40
2022,04,16,01,14,6.40
2022,04,16,01,15,6.40
2022,04,16,01,16,4.80
2022,04,16,01,17,4.80
2022,04,16,01,18,6.40
2022,04,16,01,19,6.40
2022,04,16,01,20,6.40
2022,04,16,01,21,6.40
2022,04,16,01,22,8.10
2022,04,16,01,23,6.40
2022,04,16,01,24,4.80
2022,04,16,01,25,6.40
2022,04,16,01,26,6.40
2022,04,16,01,27,6.40
2022,04,16,01,28,4.80
2022,04,16,01,29,4.80
2022,04,16,01,30,4.80
2022,04,16,01,31,4.80
2022,04,16,01,32,4.80
2022,04,16,01,33,4.80
2022,04,16,01,34,6.40
2022,04,16,01,35,1.60
2022,04,16,01,37,1.60
2022,04,16,01,38,1.60
2022,04,16,01,39,1.60
2022,04,16,01,40,3.20
2022,04,16,01,41,3.20
2022,04,16,01,42,3.20
2022,04,16,01,43,3.20
2022,04,16,01,44,3.20
2022,04,16,01,45,3.20
2022,04,16,01,46,4.80
2022,04,16,01,47,3.20
2022,04,16,01,48,6.40
2022,04,16,01,49,6.40
2022,04,16,01,50,4.80
2022,04,16,01,51,9.60
2022,04,16,01,52,12.90
2022,04,16,01,53,8.10
2022,04,16,01,54,6.40
2022,04,16,01,55,9.60
2022,04,16,01,56,8.10
2022,04,16,01,57,3.20
2022,04,16,01,58,4.80
2022,04,16,01,59,4.80
2022,04,16,02,00,4.80
2022,04,16,02,01,4.80
2022,04,16,02,02,4.80
2022,04,16,02,03,9.60
2022,04,16,02,04,3.20
2022,04,16,02,05,4.80
2022,04,16,02,06,4.80
2022,04,16,02,07,1.60
2022,04,16,02,08,3.20
2022,04,16,02,09,4.80
2022,04,16,02,10,3.20
2022,04,16,02,11,4.80
2022,04,16,02,12,4.80
2022,04,16,02,13,3.20
2022,04,16,02,14,3.20
2022,04,16,02,15,6.40
2022,04,16,02,16,6.40
2022,04,16,02,17,4.80
2022,04,16,02,18,3.20
2022,04,16,02,19,3.20
2022,04,16,02,20,3.20
2022,04,16,02,21,3.20
2022,04,16,02,22,3.20
2022,04,16,02,23,4.80
2022,04,16,02,24,4.80
2022,04,16,02,25,3.20
2022,04,16,02,26,3.20
2022,04,16,02,27,6.40
2022,04,16,02,28,4.80
2022,04,16,02,29,4.80
2022,04,16,02,30,3.20
2022,04,16,02,31,3.20
2022,04,16,02,32,3.20
2022,04,16,02,33,3.20
2022,04,16,02,43,1.60
2022,04,16,02,44,1.60
2022,04,16,02,45,3.20
2022,04,16,02,46,3.20
2022,04,16,02,47,1.60
2022,04,16,02,48,3.20
2022,04,16,02,49,3.20
2022,04,16,02,50,1.60
2022,04,16,02,51,3.20
2022,04,16,02,52,1.60
2022,04,16,02,53,4.80
2022,04,16,02,54,4.80
2022,04,16,02,55,3.20
2022,04,16,02,56,6.40
2022,04,16,02,57,6.40
2022,04,16,02,58,9.60
2022,04,16,02,59,4.80
2022,04,16,03,00,4.80
2022,04,16,03,01,3.20
2022,04,16,03,02,6.40
2022,04,16,03,03,8.10
2022,04,16,03,04,8.10
2022,04,16,03,05,9.60
2022,04,16,03,06,4.80
2022,04,16,03,07,6.40
2022,04,16,03,08,9.60
2022,04,16,03,09,8.10
2022,04,16,03,10,8.10
2022,04,16,03,11,6.40
2022,04,16,03,12,6.40
2022,04,16,03,13,11.30
2022,04,16,03,14,4.80
2022,04,16,03,15,3.20
2022,04,16,03,16,6.40
2022,04,16,03,17,4.80
2022,04,16,03,18,4.80
2022,04,16,03,19,8.10
2022,04,16,03,20,8.10
2022,04,16,03,21,6.40
2022,04,16,03,22,4.80
2022,04,16,03,23,11.30
2022,04,16,03,24,8.10
2022,04,16,03,25,9.60
2022,04,16,03,26,16.10
2022,04,16,03,27,19.30
2022,04,16,03,28,8.10
2022,04,16,03,29,8.10
2022,04,16,03,30,9.60
2022,04,16,03,31,19.30
2022,04,16,03,32,19.30
2022,04,16,03,33,20.90
2022,04,16,03,34,22.50
2022,04,16,03,35,22.50
2022,04,16,03,36,20.90
2022,04,16,03,37,22.50
2022,04,16,03,38,24.20
2022,04,16,03,39,22.50
2022,04,16,03,40,22.50
2022,04,16,03,41,20.90
2022,04,16,03,42,20.90
2022,04,16,03,43,19.30
2022,04,16,03,44,19.30
2022,04,16,03,45,19.30
2022,04,16,03,46,19.30
2022,04,16,03,47,20.90
2022,04,16,03,48,20.90
2022,04,16,03,49,19.30
2022,04,16,03,50,20.90
2022,04,16,03,51,19.30
2022,04,16,03,52,17.70
2022,04,16,03,53,22.50
2022,04,16,03,54,20.90
2022,04,16,03,55,17.70
2022,04,16,03,56,19.30
2022,04,16,03,57,19.30
2022,04,16,03,58,19.30
2022,04,16,03,59,22.50
2022,04,16,04,00,17.70
2022,04,16,04,01,20.90
2022,04,16,04,02,20.90
2022,04,16,04,03,20.90
2022,04,16,04,04,20.90
2022,04,16,04,05,22.50
2022,04,16,04,06,20.90
2022,04,16,04,07,20.90
2022,04,16,04,08,19.30
2022,04,16,04,09,20.90
2022,04,16,04,10,22.50
2022,04,16,04,11,19.30
2022,04,16,04,12,22.50
2022,04,16,04,13,22.50
2022,04,16,04,14,22.50
2022,04,16,04,15,22.50
2022,04,16,04,16,22.50
2022,04,16,04,17,17.70
2022,04,16,04,18,17.70
2022,04,16,04,19,16.10
2022,04,16,04,20,17.70
2022,04,16,04,21,17.70
2022,04,16,04,22,16.10
2022,04,16,04,23,17.70
2022,04,16,04,24,17.70
2022,04,16,04,25,20.90
2022,04,16,04,26,17.70
2022,04,16,04,27,19.30
2022,04,16,04,28,16.10
2022,04,16,04,29,19.30
2022,04,16,04,30,19.30
2022,04,16,04,31,19.30
2022,04,16,04,32,19.30
2022,04,16,04,33,20.90
2022,04,16,04,34,22.50
2022,04,16,04,35,17.70
2022,04,16,04,36,19.30
2022,04,16,04,37,19.30
2022,04,16,04,38,19.30
2022,04,16,04,39,19.30
2022,04,16,04,40,17.70
2022,04,16,04,41,19.30
2022,04,16,04,42,19.30
2022,04,16,04,43,17.70
2022,04,16,04,44,22.50
2022,04,16,04,45,20.90
2022,04,16,04,46,16.10
2022,04,16,04,47,19.30
2022,04,16,04,48,20.90
2022,04,16,04,49,19.30
2022,04,16,04,50,19.30
2022,04,16,04,51,20.90
2022,04,16,04,52,19.30
2022,04,16,04,53,22.50
2022,04,16,04,54,22.50
2022,04,16,04,55,19.30
2022,04,16,04,56,20.90
2022,04,16,04,57,12.90
2022,04,16,04,58,20.90
2022,04,16,04,59,19.30
2022,04,16,05,00,17.70
2022,04,16,05,01,14.50
2022,04,16,05,02,6.40
2022,04,16,05,03,6.40
2022,04,16,05,04,4.80
2022,04,16,05,05,3.20
2022,04,16,05,06,1.60
2022,04,16,05,07,1.60
2022,04,16,05,08,3.20
2022,04,16,05,09,9.60
2022,04,16,05,10,8.10
2022,04,16,05,11,3.20
2022,04,16,05,12,11.30
2022,04,16,05,13,9.60
2022,04,16,05,14,8.10
2022,04,16,05,15,6.40
2022,04,16,05,16,12.90
2022,04,16,05,17,19.30
2022,04,16,05,18,22.50
2022,04,16,05,19,20.90
2022,04,16,05,20,19.30
2022,04,16,05,21,17.70
2022,04,16,05,22,19.30
2022,04,16,05,23,16.10
2022,04,16,05,24,19.30
2022,04,16,05,25,20.90
2022,04,16,05,26,17.70
2022,04,16,05,27,22.50
2022,04,16,05,28,22.50
2022,04,16,05,29,25.70
2022,04,16,05,30,22.50
2022,04,16,05,31,24.20
2022,04,16,05,32,24.20
2022,04,16,05,33,24.20
2022,04,16,05,34,22.50
2022,04,16,05,35,22.50
2022,04,16,05,36,20.90
2022,04,16,05,37,20.90
2022,04,16,05,38,22.50
2022,04,16,05,39,24.20
2022,04,16,05,40,25.70
2022,04,16,05,41,25.70
2022,04,16,05,42,24.20
2022,04,16,05,43,22.50
2022,04,16,05,44,22.50
2022,04,16,05,45,25.70
2022,04,16,05,46,27.40
2022,04,16,05,47,24.20
2022,04,16,05,48,27.40
2022,04,16,05,49,24.20
2022,04,16,05,50,27.40
2022,04,16,05,51,25.70
2022,04,16,05,52,22.50
2022,04,16,05,53,27.40
2022,04,16,05,54,27.40
2022,04,16,05,55,25.70
2022,04,16,05,56,24.20
2022,04,16,05,57,25.70
2022,04,16,05,58,24.20
2022,04,16,05,59,25.70
2022,04,16,06,00,24.20
2022,04,16,06,01,24.20
2022,04,16,06,02,24.20
2022,04,16,06,03,25.70
2022,04,16,06,04,25.70
2022,04,16,06,05,24.20
2022,04,16,06,06,22.50
2022,04,16,06,07,22.50
2022,04,16,06,08,22.50
2022,04,16,06,09,22.50
2022,04,16,06,10,22.50
2022,04,16,06,11,22.50
2022,04,16,06,12,19.30
2022,04,16,06,13,22.50
2022,04,16,06,14,22.50
2022,04,16,06,15,22.50
2022,04,16,06,16,22.50
2022,04,16,06,17,22.50
2022,04,16,06,18,22.50
2022,04,16,06,19,24.20
2022,04,16,06,20,24.20
2022,04,16,06,21,24.20
2022,04,16,06,22,24.20
2022,04,16,06,23,22.50
2022,04,16,06,24,22.50
2022,04,16,06,25,22.50
2022,04,16,06,26,20.90
2022,04,16,06,27,20.90
2022,04,16,06,28,22.50
2022,04,16,06,29,22.50
2022,04,16,06,30,22.50
2022,04,16,06,31,22.50
2022,04,16,06,32,19.30
2022,04,16,06,33,19.30
2022,04,16,06,34,19.30
2022,04,16,06,35,19.30
2022,04,16,06,36,22.50
2022,04,16,06,37,19.30
2022,04,16,06,38,20.90
2022,04,16,06,39,20.90
2022,04,16,06,40,19.30
2022,04,16,06,41,19.30
2022,04,16,06,42,20.90
2022,04,16,06,43,19.30
2022,04,16,06,44,19.30
2022,04,16,06,45,19.30
2022,04,16,06,46,20.90
2022,04,16,06,47,19.30
2022,04,16,06,48,20.90
2022,04,16,06,49,24.20
2022,04,16,06,50,19.30
2022,04,16,06,51,20.90
2022,04,16,06,52,20.90
2022,04,16,06,53,19.30
2022,04,16,06,54,19.30
2022,04,16,06,55,19.30
2022,04,16,06,56,22.50
2022,04,16,06,57,20.90
2022,04,16,06,58,22.50
2022,04,16,06,59,22.50
2022,04,16,07,00,22.50
2022,04,16,07,01,20.90
2022,04,16,07,02,22.50
2022,04,16,07,03,24.20
2022,04,16,07,04,22.50
2022,04,16,07,05,19.30
2022,04,16,07,06,20.90
2022,04,16,07,07,20.90
2022,04,16,07,08,22.50
2022,04,16,07,09,20.90
2022,04,16,07,10,20.90
2022,04,16,07,11,27.40
2022,04,16,07,12,22.50
2022,04,16,07,13,24.20
2022,04,16,07,14,19.30
2022,04,16,07,15,27.40
2022,04,16,07,16,24.20
2022,04,16,07,17,29.00
2022,04,16,07,18,25.70
2022,04,16,07,19,25.70
2022,04,16,07,20,25.70
2022,04,16,07,21,24.20
2022,04,16,07,22,20.90
2022,04,16,07,23,24.20
2022,04,16,07,24,24.20
2022,04,16,07,25,22.50
2022,04,16,07,26,25.70
2022,04,16,07,27,22.50
2022,04,16,07,28,24.20
2022,04,16,07,29,24.20
2022,04,16,07,30,27.40
2022,04,16,07,31,24.20
2022,04,16,07,32,24.20
2022,04,16,07,33,24.20
2022,04,16,07,34,24.20
2022,04,16,07,35,25.70
2022,04,16,07,36,24.20
2022,04,16,07,37,27.40
2022,04,16,07,38,30.60
2022,04,16,07,39,29.00
2022,04,16,07,40,29.00
2022,04,16,07,41,30.60
2022,04,16,07,42,27.40
2022,04,16,07,43,27.40
2022,04,16,07,44,25.70
2022,04,16,07,45,29.00
2022,04,16,07,46,29.00
2022,04,16,07,47,32.20
2022,04,16,07,48,30.60
2022,04,16,07,49,27.40
2022,04,16,07,50,27.40
2022,04,16,07,51,29.00
2022,04,16,07,52,30.60
2022,04,16,07,53,30.60
2022,04,16,07,54,30.60
2022,04,16,07,55,30.60
2022,04,16,07,56,33.80
2022,04,16,07,57,32.20
2022,04,16,07,58,29.00
2022,04,16,07,59,29.00
2022,04,16,08,00,29.00
2022,04,16,08,01,30.60
2022,04,16,08,02,27.40
2022,04,16,08,03,29.00
2022,04,16,08,04,32.20
2022,04,16,08,05,30.60
2022,04,16,08,06,30.60
2022,04,16,08,07,29.00
2022,04,16,08,08,30.60
2022,04,16,08,09,32.20
2022,04,16,08,10,32.20
2022,04,16,08,11,29.00
2022,04,16,08,12,29.00
2022,04,16,08,13,33.80
2022,04,16,08,14,32.20
2022,04,16,08,15,32.20
2022,04,16,08,16,30.60
2022,04,16,08,17,30.60
2022,04,16,08,18,32.20
2022,04,16,08,19,33.80
2022,04,16,08,20,32.20
2022,04,16,08,21,33.80
2022,04,16,08,22,33.80
2022,04,16,08,23,32.20
2022,04,16,08,24,32.20
2022,04,16,08,25,30.60
2022,04,16,08,26,33.80
2022,04,16,08,27,32.20
2022,04,16,08,28,33.80
2022,04,16,08,29,33.80
2022,04,16,08,30,35.40
2022,04,16,08,31,33.80
2022,04,16,08,32,30.60
2022,04,16,08,33,35.40
2022,04,16,08,34,37.00
2022,04,16,08,35,33.80
2022,04,16,08,36,33.80
2022,04,16,08,37,37.00
2022,04,16,08,38,32.20
2022,04,16,08,39,32.20
2022,04,16,08,40,33.80
2022,04,16,08,41,32.20
2022,04,16,08,42,33.80
2022,04,16,08,43,33.80
2022,04,16,08,44,32.20
2022,04,16,08,45,29.00
2022,04,16,08,46,32.20
2022,04,16,08,47,30.60
2022,04,16,08,48,30.60
2022,04,16,08,49,35.40
2022,04,16,08,50,29.00
2022,04,16,08,51,29.00
2022,04,16,08,52,25.70
2022,04,16,08,53,27.40
2022,04,16,08,54,29.00
2022,04,16,08,55,32.20
2022,04,16,08,56,27.40
2022,04,16,08,57,25.70
2022,04,16,08,58,27.40
2022,04,16,08,59,27.40
2022,04,16,09,00,29.00
2022,04,16,09,01,32.20
2022,04,16,09,02,29.00
2022,04,16,09,03,27.40
2022,04,16,09,04,29.00
2022,04,16,09,05,27.40
2022,04,16,09,06,24.20
2022,04,16,09,07,27.40
2022,04,16,09,08,29.00
2022,04,16,09,09,29.00
2022,04,16,09,10,30.60
2022,04,16,09,11,27.40
2022,04,16,09,12,32.20
2022,04,16,09,13,29.00
2022,04,16,09,14,29.00
2022,04,16,09,15,30.60
2022,04,16,09,16,29.00
2022,04,16,09,17,32.20
2022,04,16,09,18,30.60
2022,04,16,09,19,27.40
2022,04,16,09,20,27.40
2022,04,16,09,21,25.70
2022,04,16,09,22,25.70
2022,04,16,09,23,30.60
2022,04,16,09,24,29.00
2022,04,16,09,25,33.80
2022,04,16,09,26,27.40
2022,04,16,09,27,29.00
2022,04,16,09,28,30.60
2022,04,16,09,29,29.00
2022,04,16,09,30,30.60
2022,04,16,09,31,32.20
2022,04,16,09,32,30.60
2022,04,16,09,33,32.20
2022,04,16,09,34,33.80
2022,04,16,09,35,32.20
2022,04,16,09,36,33.80
2022,04,16,09,37,33.80
2022,04,16,09,38,30.60
2022,04,16,09,39,30.60
2022,04,16,09,40,32.20
2022,04,16,09,41,30.60
2022,04,16,09,42,27.40
2022,04,16,09,43,27.40
2022,04,16,09,44,29.00
2022,04,16,09,45,32.20
2022,04,16,09,46,30.60
2022,04,16,09,47,30.60
2022,04,16,09,48,32.20
2022,04,16,09,49,25.70
2022,04,16,09,50,24.20
2022,04,16,09,51,24.20
2022,04,16,09,52,27.40
2022,04,16,09,53,25.70
2022,04,16,09,54,27.40
2022,04,16,09,55,32.20
2022,04,16,09,56,24.20
2022,04,16,09,57,24.20
2022,04,16,09,58,24.20
2022,04,16,09,59,22.50
2022,04,16,10,00,24.20
2022,04,16,10,01,22.50
2022,04,16,10,02,22.50
2022,04,16,10,03,22.50
2022,04,16,10,04,24.20
2022,04,16,10,05,24.20
2022,04,16,10,06,24.20
2022,04,16,10,07,19.30
2022,04,16,10,08,24.20
2022,04,16,10,09,19.30
2022,04,16,10,10,22.50
2022,04,16,10,11,24.20
2022,04,16,10,12,20.90
2022,04,16,10,13,17.70
2022,04,16,10,14,19.30
2022,04,16,10,15,20.90
2022,04,16,10,16,19.30
2022,04,16,10,17,19.30
2022,04,16,10,18,20.90
2022,04,16,10,19,20.90
2022,04,16,10,20,17.70
2022,04,16,10,21,16.10
2022,04,16,10,22,17.70
2022,04,16,10,23,17.70
2022,04,16,10,24,20.90
2022,04,16,10,25,19.30
2022,04,16,10,26,17.70
2022,04,16,10,27,24.20
2022,04,16,10,28,25.70
2022,04,16,10,29,27.40
2022,04,16,10,30,27.40
2022,04,16,10,31,22.50
2022,04,16,10,32,22.50
2022,04,16,10,33,20.90
2022,04,16,10,34,20.90
2022,04,16,10,35,19.30
2022,04,16,10,36,20.90
2022,04,16,10,37,20.90
2022,04,16,10,38,24.20
2022,04,16,10,39,24.20
2022,04,16,10,40,20.90
2022,04,16,10,41,19.30
2022,04,16,10,42,19.30
2022,04,16,10,43,19.30
2022,04,16,10,44,22.50
2022,04,16,10,45,20.90
2022,04,16,10,46,20.90
2022,04,16,10,47,19.30
2022,04,16,10,48,17.70
2022,04,16,10,49,20.90
2022,04,16,10,50,17.70
2022,04,16,10,51,22.50
2022,04,16,10,52,22.50
2022,04,16,10,53,24.20
2022,04,16,10,54,22.50
2022,04,16,10,55,19.30
2022,04,16,10,56,17.70
2022,04,16,10,57,19.30
2022,04,16,10,58,19.30
2022,04,16,10,59,17.70
2022,04,16,11,00,19.30
2022,04,16,11,01,24.20
2022,04,16,11,02,25.70
2022,04,16,11,03,24.20
2022,04,16,11,04,24.20
2022,04,16,11,05,24.20
2022,04,16,11,06,25.70
2022,04,16,11,07,27.40
2022,04,16,11,08,24.20
2022,04,16,11,09,22.50
2022,04,16,11,10,20.90
2022,04,16,11,11,25.70
2022,04,16,11,12,25.70
2022,04,16,11,13,24.20
2022,04,16,11,14,22.50
2022,04,16,11,15,25.70
2022,04,16,11,16,22.50
2022,04,16,11,17,24.20
2022,04,16,11,18,24.20
2022,04,16,11,19,25.70
2022,04,16,11,20,22.50
2022,04,16,11,21,22.50
2022,04,16,11,22,22.50
2022,04,16,11,23,19.30
2022,04,16,11,24,22.50
2022,04,16,11,25,22.50
2022,04,16,11,26,25.70
2022,04,16,11,27,25.70
2022,04,16,11,28,22.50
2022,04,16,11,29,20.90
2022,04,16,11,30,22.50
2022,04,16,11,31,20.90
2022,04,16,11,32,17.70
2022,04,16,11,33,17.70
2022,04,16,11,34,16.10
2022,04,16,11,35,17.70
2022,04,16,11,36,14.50
2022,04,16,11,37,19.30
2022,04,16,11,38,19.30
2022,04,16,11,39,16.10
2022,04,16,11,40,14.50
2022,04,16,11,41,14.50
2022,04,16,11,42,17.70
2022,04,16,11,43,16.10
2022,04,16,11,44,14.50
2022,04,16,11,45,14.50
2022,04,16,11,46,14.50
2022,04,16,11,47,12.90
2022,04,16,11,48,14.50
2022,04,16,11,49,9.60
2022,04,16,11,50,12.90
2022,04,16,11,51,11.30
2022,04,16,11,52,6.40
2022,04,16,11,53,8.10
2022,04,16,11,54,11.30
2022,04,16,11,55,9.60
2022,04,16,11,56,16.10
2022,04,16,11,57,14.50
2022,04,16,11,58,14.50
2022,04,16,11,59,14.50
2022,04,16,12,00,14.50
2022,04,16,12,01,14.50
2022,04,16,12,02,14.50
2022,04,16,12,03,16.10
2022,04,16,12,04,14.50
2022,04,16,12,05,11.30
2022,04,16,12,06,14.50
2022,04,16,12,07,16.10
2022,04,16,12,08,14.50
2022,04,16,12,09,14.50
2022,04,16,12,10,11.30
2022,04,16,12,11,14.50
2022,04,16,12,12,12.90
2022,04,16,12,13,12.90
2022,04,16,12,14,9.60
2022,04,16,12,15,11.30
2022,04,16,12,16,11.30
2022,04,16,12,17,11.30
2022,04,16,12,18,12.90
2022,04,16,12,19,12.90
2022,04,16,12,20,9.60
2022,04,16,12,21,12.90
2022,04,16,12,22,9.60
2022,04,16,12,23,12.90
2022,04,16,12,24,11.30
2022,04,16,12,25,12.90
2022,04,16,12,26,12.90
2022,04,16,12,27,11.30
2022,04,16,12,28,11.30
2022,04,16,12,29,12.90
2022,04,16,12,30,11.30
2022,04,16,12,31,14.50
2022,04,16,12,32,14.50
2022,04,16,12,33,14.50
2022,04,16,12,34,14.50
2022,04,16,12,35,14.50
2022,04,16,12,36,16.10
2022,04,16,12,37,16.10
2022,04,16,12,38,14.50
2022,04,16,12,39,14.50
2022,04,16,12,40,12.90
2022,04,16,12,41,12.90
2022,04,16,12,42,12.90
2022,04,16,12,43,14.50
2022,04,16,12,44,11.30
2022,04,16,12,45,11.30
2022,04,16,12,46,9.60
2022,04,16,12,47,14.50
2022,04,16,12,48,14.50
2022,04,16,12,49,14.50
2022,04,16,12,50,14.50
2022,04,16,12,51,14.50
2022,04,16,12,52,16.10
2022,04,16,12,53,14.50
2022,04,16,12,54,16.10
2022,04,16,12,55,16.10
2022,04,16,12,56,16.10
2022,04,16,12,57,16.10
2022,04,16,12,58,14.50
2022,04,16,12,59,14.50
2022,04,16,13,00,14.50
2022,04,16,13,01,14.50
2022,04,16,13,02,12.90
2022,04,16,13,03,12.90
2022,04,16,13,04,14.50
2022,04,16,13,05,14.50
2022,04,16,13,06,14.50
2022,04,16,13,07,11.30
2022,04,16,13,08,16.10
2022,04,16,13,09,16.10
2022,04,16,13,10,16.10
2022,04,16,13,11,14.50
2022,04,16,13,12,14.50
2022,04,16,13,13,16.10
2022,04,16,13,14,16.10
2022,04,16,13,15,16.10
2022,04,16,13,16,14.50
2022,04,16,13,17,14.50
2022,04,16,13,18,14.50
2022,04,16,13,19,14.50
2022,04,16,13,20,14.50
2022,04,16,13,21,12.90
2022,04,16,13,22,14.50
2022,04,16,13,23,12.90
2022,04,16,13,24,14.50
2022,04,16,13,25,14.50
2022,04,16,13,26,14.50
2022,04,16,13,27,14.50
2022,04,16,13,28,11.30
2022,04,16,13,29,11.30
2022,04,16,13,30,11.30
2022,04,16,13,31,14.50
2022,04,16,13,32,14.50
2022,04,16,13,33,12.90
2022,04,16,13,34,14.50
2022,04,16,13,35,9.60
2022,04,16,13,36,11.30
2022,04,16,13,37,11.30
2022,04,16,13,38,12.90
2022,04,16,13,39,11.30
2022,04,16,13,40,9.60
2022,04,16,13,41,8.10
2022,04,16,13,42,9.60
2022,04,16,13,43,9.60
2022,04,16,13,44,9.60
2022,04,16,13,45,9.60
2022,04,16,13,46,8.10
2022,04,16,13,47,6.40
2022,04,16,13,48,9.60
2022,04,16,13,49,9.60
2022,04,16,13,50,4.80
2022,04,16,13,51,6.40
2022,04,16,13,52,6.40
2022,04,16,13,53,3.20
2022,04,16,13,54,3.20
2022,04,16,13,55,3.20
2022,04,16,13,56,9.60
2022,04,16,13,57,9.60
2022,04,16,13,58,6.40
2022,04,16,13,59,8.10
2022,04,16,14,00,8.10
2022,04,16,14,01,11.30
2022,04,16,14,02,11.30
2022,04,16,14,03,11.30
2022,04,16,14,04,8.10
2022,04,16,14,05,8.10
2022,04,16,14,06,8.10
2022,04,16,14,07,8.10
2022,04,16,14,08,8.10
2022,04,16,14,09,8.10
2022,04,16,14,10,6.40
2022,04,16,14,11,8.10
2022,04,16,14,12,8.10
2022,04,16,14,13,8.10
2022,04,16,14,14,11.30
2022,04,16,14,15,11.30
2022,04,16,14,16,11.30
2022,04,16,14,17,8.10
2022,04,16,14,18,8.10
2022,04,16,14,19,11.30
2022,04,16,14,20,8.10
2022,04,16,14,21,8.10
2022,04,16,14,22,8.10
2022,04,16,14,23,8.10
2022,04,16,14,24,8.10
2022,04,16,14,25,8.10
2022,04,16,14,26,8.10
2022,04,16,14,27,9.60
2022,04,16,14,28,9.60
2022,04,16,14,29,9.60
2022,04,16,14,30,9.60
2022,04,16,14,31,8.10
2022,04,16,14,32,8.10
2022,04,16,14,33,8.10
2022,04,16,14,34,8.10
2022,04,16,14,35,8.10
2022,04,16,14,36,8.10
2022,04,16,14,37,11.30
2022,04,16,14,38,11.30
2022,04,16,14,39,11.30
2022,04,16,14,40,11.30
2022,04,16,14,41,11.30
2022,04,16,14,42,11.30
2022,04,16,14,43,12.90
2022,04,16,14,44,11.30
2022,04,16,14,45,12.90
2022,04,16,14,46,16.10
2022,04,16,14,47,16.10
2022,04,16,14,48,14.50
2022,04,16,14,49,16.10
2022,04,16,14,50,16.10
2022,04,16,14,51,14.50
2022,04,16,14,52,12.90
2022,04,16,14,53,14.50
2022,04,16,14,54,12.90
2022,04,16,14,55,12.90
2022,04,16,14,56,14.50
2022,04,16,14,57,17.70
2022,04,16,14,58,14.50
2022,04,16,14,59,16.10
2022,04,16,15,00,16.10
2022,04,16,15,01,12.90
2022,04,16,15,02,12.90
2022,04,16,15,03,14.50
2022,04,16,15,04,14.50
2022,04,16,15,05,17.70
2022,04,16,15,06,19.30
2022,04,16,15,07,17.70
2022,04,16,15,08,19.30
2022,04,16,15,09,24.20
2022,04,16,15,10,19.30
2022,04,16,15,11,20.90
2022,04,16,15,12,22.50
2022,04,16,15,13,17.70
2022,04,16,15,14,24.20
2022,04,16,15,15,16.10
2022,04,16,15,16,16.10
2022,04,16,15,17,19.30
2022,04,16,15,18,24.20
2022,04,16,15,19,20.90
2022,04,16,15,20,8.10
2022,04,16,15,21,12.90
2022,04,16,15,22,11.30
2022,04,16,15,23,9.60
2022,04,16,15,24,9.60
2022,04,16,15,25,8.10
2022,04,16,15,26,6.40
2022,04,16,15,27,8.10
2022,04,16,15,28,12.90
2022,04,16,15,29,11.30
2022,04,16,15,30,4.80
2022,04,16,15,31,4.80
2022,04,16,15,32,6.40
2022,04,16,15,33,8.10
2022,04,16,15,34,14.50
2022,04,16,15,35,9.60
2022,04,16,15,36,12.90
2022,04,16,15,37,8.10
2022,04,16,15,38,4.80
2022,04,16,15,39,6.40
2022,04,16,15,40,11.30
2022,04,16,15,41,11.30
2022,04,16,15,42,8.10
2022,04,16,15,43,8.10
2022,04,16,15,44,8.10
2022,04,16,15,45,17.70
2022,04,16,15,46,4.80
2022,04,16,15,47,12.90
2022,04,16,15,48,6.40
2022,04,16,15,49,3.20
2022,04,16,15,50,6.40
2022,04,16,15,51,9.60
2022,04,16,15,52,9.60
2022,04,16,15,53,8.10
2022,04,16,15,54,6.40
2022,04,16,15,55,11.30
2022,04,16,15,56,9.60
2022,04,16,15,57,11.30
2022,04,16,15,58,9.60
2022,04,16,15,59,9.60
2022,04,16,16,00,8.10
2022,04,16,16,01,6.40
2022,04,16,16,02,9.60
2022,04,16,16,03,6.40
2022,04,16,16,04,12.90
2022,04,16,16,05,9.60
2022,04,16,16,06,9.60
2022,04,16,16,07,11.30
2022,04,16,16,08,14.50
2022,04,16,16,09,8.10
2022,04,16,16,10,8.10
2022,04,16,16,11,6.40
2022,04,16,16,12,4.80
2022,04,16,16,13,9.60
2022,04,16,16,14,8.10
2022,04,16,16,15,6.40
2022,04,16,16,16,8.10
2022,04,16,16,17,9.60
2022,04,16,16,18,8.10
2022,04,16,16,19,4.80
2022,04,16,16,20,4.80
2022,04,16,16,21,9.60
2022,04,16,16,22,8.10
2022,04,16,16,23,9.60
2022,04,16,16,24,9.60
2022,04,16,16,25,8.10
2022,04,16,16,26,11.30
2022,04,16,16,27,4.80
2022,04,16,16,28,6.40
2022,04,16,16,29,8.10
2022,04,16,16,30,4.80
2022,04,16,16,31,11.30
2022,04,16,16,32,9.60
2022,04,16,16,33,6.40
2022,04,16,16,34,6.40
2022,04,16,16,35,8.10
2022,04,16,16,36,8.10
2022,04,16,16,37,14.50
2022,04,16,16,38,9.60
2022,04,16,16,39,14.50
2022,04,16,16,40,9.60
2022,04,16,16,41,9.60
2022,04,16,16,42,6.40
2022,04,16,16,43,8.10
2022,04,16,16,44,6.40
2022,04,16,16,45,12.90
2022,04,16,16,46,6.40
2022,04,16,16,47,4.80
2022,04,16,16,48,11.30
2022,04,16,16,49,11.30
2022,04,16,16,50,6.40
2022,04,16,16,51,6.40
2022,04,16,16,52,8.10
2022,04,16,16,53,9.60
2022,04,16,16,54,9.60
2022,04,16,16,55,9.60
2022,04,16,16,56,14.50
2022,04,16,16,57,14.50
2022,04,16,16,58,9.60
2022,04,16,16,59,12.90
2022,04,16,17,00,8.10
2022,04,16,17,01,16.10
2022,04,16,17,02,14.50
2022,04,16,17,03,9.60
2022,04,16,17,04,22.50
2022,04,16,17,05,14.50
2022,04,16,17,06,6.40
2022,04,16,17,07,9.60
2022,04,16,17,08,12.90
2022,04,16,17,09,12.90
2022,04,16,17,10,11.30
2022,04,16,17,11,11.30
2022,04,16,17,12,8.10
2022,04,16,17,13,12.90
2022,04,16,17,14,9.60
2022,04,16,17,15,9.60
2022,04,16,17,16,9.60
2022,04,16,17,17,16.10
2022,04,16,17,18,12.90
2022,04,16,17,19,12.90
2022,04,16,17,20,14.50
2022,04,16,17,21,8.10
2022,04,16,17,22,6.40
2022,04,16,17,23,9.60
2022,04,16,17,24,4.80
2022,04,16,17,25,6.40
2022,04,16,17,26,8.10
2022,04,16,17,27,9.60
2022,04,16,17,28,6.40
2022,04,16,17,29,6.40
2022,04,16,17,30,8.10
2022,04,16,17,31,9.60
2022,04,16,17,32,9.60
2022,04,16,17,33,8.10
2022,04,16,17,34,11.30
2022,04,16,17,35,8.10
2022,04,16,17,36,6.40
2022,04,16,17,37,9.60
2022,04,16,17,38,11.30
2022,04,16,17,39,9.60
2022,04,16,17,40,8.10
2022,04,16,17,41,4.80
2022,04,16,17,42,3.20
2022,04,16,17,43,3.20
2022,04,16,17,44,8.10
2022,04,16,17,45,8.10
2022,04,16,17,46,8.10